This is the latest recevied weather packets stored in our database for station/object NO4D. If no packets are shown the sender has not sent any weather packets the latest 10 day(s).
| Time | Temp. | Humidity | Pressure | Rain* | Wind** | Luminosity | Snow |
|---|---|---|---|---|---|---|---|
| 1778099909 | 25° C | 70% | 1013.2 hPa | 0 mm | - | 269 W/m² | - |
| 1778099606 | 25° C | 71% | 1013.4 hPa | 0 mm | - | 290 W/m² | - |
| 1778099303 | 25° C | 71% | 1013.3 hPa | 0 mm | - | 302 W/m² | - |
| 1778099000 | 25° C | 70% | 1013.1 hPa | 0 mm | - | 257 W/m² | - |
| 1778098697 | 25.56° C | 69% | 1013.4 hPa | 0 mm | - | 240 W/m² | - |
| 1778098394 | 25.56° C | 70% | 1013.4 hPa | 0 mm | - | 533 W/m² | - |
| 1778098091 | 25° C | 72% | 1013.7 hPa | 0 mm | - | 241 W/m² | - |
| 1778097787 | 25.56° C | 70% | 1013.7 hPa | 0 mm | - | 268 W/m² | - |
| 1778097483 | 26.67° C | 68% | 1013.2 hPa | 0 mm | - | 597 W/m² | - |
| 1778097181 | 26.11° C | 68% | 1013.8 hPa | 0 mm | - | 756 W/m² | - |
| 1778096877 | 25° C | 71% | 1013.5 hPa | 0 mm | - | 788 W/m² | - |
| 1778096574 | 24.44° C | 72% | 1013.7 hPa | 0 mm | - | 286 W/m² | - |
| 1778096272 | 25° C | 72% | 1013.8 hPa | 0 mm | - | 308 W/m² | - |
| 1778095968 | 25° C | 71% | 1013.7 hPa | 0 mm | - | 705 W/m² | - |
| 1778095664 | 24.44° C | 74% | 1013.6 hPa | 0 mm | - | 412 W/m² | - |
| 1778095361 | 25.56° C | 73% | 1013.8 hPa | 0 mm | - | 218 W/m² | - |
| 1778095058 | 24.44° C | 75% | 1013.8 hPa | 0 mm | - | 727 W/m² | - |
| 1778094754 | 23.89° C | 74% | 1014.1 hPa | 0 mm | - | 347 W/m² | - |
| 1778094452 | 23.89° C | 74% | 1014.2 hPa | 0 mm | - | 325 W/m² | - |
| 1778094148 | 23.89° C | 75% | 1014.1 hPa | 0 mm | - | 243 W/m² | - |
| 1778093845 | 23.89° C | 75% | 1014 hPa | 0 mm | - | 269 W/m² | - |
| 1778093541 | 23.89° C | 74% | 1013.9 hPa | 0 mm | - | 747 W/m² | - |
| 1778093239 | 23.89° C | 73% | 1014 hPa | 0 mm | - | 352 W/m² | - |
| 1778092936 | 23.89° C | 75% | 1014.1 hPa | 0 mm | - | 909 W/m² | - |
| 1778092633 | 23.33° C | 74% | 1014.1 hPa | 0 mm | - | 385 W/m² | - |
* Rain latest hour (hover to see other rain measurements)
** Current wind speed in m/s (hover to see current wind gust speed)